Regional Weather Roundup
Issued by NWS

Home | Current Version | Previous Version | Text Only | Print | Product List | Glossary Off
Versions: 1 2 3 4 5 6 7 8 9 10 11 12 13 14 15 16 17 18 19 20 21 22 23 24 25 26 27 28 29 30 31 32 33 34 35 36 37 38 39 40 41 42 43 44 45 46 47 48 49 50

000
ASUS43 KDMX 290607
RWRIA

WEATHER ROUNDUP FOR IOWA
NATIONAL WEATHER SERVICE DES MOINES IA
100 AM CDT TUE JUL 29 2014

NOTE: "FAIR" INDICATES FEW OR NO CLOUDS BELOW 12,000 FEET WITH NO
SIGNIFICANT WEATHER AND/OR OBSTRUCTIONS TO VISIBILITY.

* - THESE STATIONS ARE NOT NWS STATIONS...THUS NOT UNDER NWS
QUALITY CONTROL.  THEY ALSO DO NOT REPORT WEATHER SUCH
AS PRECIPITATION OR FOG.

IAZ001>003-012>014-020>022-031>034-043>046-290700-
   NORTHWEST IOWA

CITY           SKY/WX    TMP DP  RH WIND       PRES   REMARKS
CARROLL *      CLEAR     55  55 100 W6        30.20R
CHEROKEE *     CLEAR     57  57 100 CALM      30.22R
DENISON *      CLEAR     57  57 100 CALM      30.19R
LE MARS *      CLEAR     57  55  94 CALM      30.22S
ORANGE CITY *  CLEAR     57  54  88 CALM      30.22S
SHELDON *      CLEAR     52  50  93 CALM      30.21S
SIOUX CITY     PTCLDY    62  56  80 CALM      30.21S
6HR MIN TEMP:  59; 6HR MAX TEMP:  74;

SPENCER        CLEAR     52  50  93 NW5       30.21S
6HR MIN TEMP:  52; 6HR MAX TEMP:  71;

STORM LAKE *   CLEAR     59  57  94 N7        30.22R
$$

IAZ055>058-069>071-079>083-090>094-290700-
   SOUTHWEST IOWA

CITY           SKY/WX    TMP DP  RH WIND       PRES   REMARKS
ATLANTIC *     CLEAR     59  57  94 CALM      30.19S
AUDUBON *      CLEAR     57  55  94 CALM      30.21S
CLARINDA *     CLEAR     57  55  94 CALM      30.21R
COUNCIL BLFS * PTCLDY    61  59  94 N5        30.19S
CRESTON *      MOCLDY    61  59  94 NW6       30.19S
HARLAN  *      CLEAR     57  57 100 CALM      30.24R
LAMONI         MOCLDY    60  57  89 NW3       30.18R
6HR MIN TEMP:  60; 6HR MAX TEMP:  74;

RED OAK *      CLEAR     57  57 100 N5        30.19S
SHENANDOAH *   CLEAR     59  57  94 CALM      30.20S
$$

IAZ047>049-059>061-072>074-084-290700-
   CENTRAL IOWA

CITY           SKY/WX    TMP DP  RH WIND       PRES   REMARKS
AMES           CLEAR     58  56  93 NW3       30.17S
6HR MIN TEMP:  58; 6HR MAX TEMP:  73;

ANKENY *       CLEAR     57  57 100 CALM      30.17S
CHARITON *     CLEAR     59  57  94 W5        30.17R
DES MOINES     CLEAR     63  59  87 NW3       30.16S
6HR MIN TEMP:  63; 6HR MAX TEMP:  74; 6HR PCP: TRACE;

GRINNELL*      CLEAR     57  55  94 NW5       30.16S
KNOXVILLE *    CLEAR     61  55  82 NW7       30.15S
MARSHALLTOWN   CLEAR     57  55  93 NW6       30.16R
6HR MIN TEMP:  56; 6HR MAX TEMP:  72;

PELLA *        CLEAR     58  57  96 NW3       30.17R
PERRY *          N/A     57  57 100 W6        30.18S
$$

IAZ004>006-015-016-023>025-035-036-290700-
   NORTH CENTRAL IOWA

CITY           SKY/WX    TMP DP  RH WIND       PRES   REMARKS
ALGONA *       CLEAR     59  55  88 NW8       30.19S
CLARION *      CLEAR     55  54  94 CALM      30.18S
ESTHERVILLE    CLEAR     56  53  90 NW7       30.20S
6HR MIN TEMP:  56; 6HR MAX TEMP:  71;

FORT DODGE *   CLEAR     57  54  88 NW3       30.19S
MASON CITY     CLEAR     55  53  93 W7        30.18S
6HR MIN TEMP:  54; 6HR MAX TEMP:  72;

FOREST CITY *  CLEAR     55  54  94 CALM      30.17S
IOWA FALLS *     N/A     57  54  88 W3        30.18S
$$

IAZ007>011-017>019-026>030-037>042-050>054-066-290700-
   NORTHEAST IOWA

CITY           SKY/WX    TMP DP  RH WIND       PRES   REMARKS
CEDAR RAPIDS   CLEAR     58  54  86 NW6       30.13R
6HR MIN TEMP:  58; 6HR MAX TEMP:  70;

CHARLES CITY * CLEAR     55  55 100 W5        30.16S
CLINTON *      CLEAR     54  50  87 NW6       30.14R
DECORAH *      CLEAR     57  54  88 CALM      30.13S
DUBUQUE        CLEAR     56  52  86 CALM      30.12S
6HR MIN TEMP:  55; 6HR MAX TEMP:  69;

MONTICELLO *   CLEAR     54  54 100 CALM      30.13S
OELWEIN *      CLEAR     57  55  94 NW3       30.15S
WATERLOO       CLEAR     57  55  93 CALM      30.14R
6HR MIN TEMP:  56; 6HR MAX TEMP:  73;

$$

IAZ064-065-067-068-078-290700-
   EAST CENTRAL IOWA

CITY           SKY/WX    TMP DP  RH WIND       PRES   REMARKS
DAVENPORT      CLEAR     52  50  93 W7        30.12S
6HR MIN TEMP:  51; 6HR MAX TEMP:  70;

IOWA CITY      CLEAR     60  57  89 CALM      30.14S
6HR MIN TEMP:  59; 6HR MAX TEMP:  72;

MT. PLEASANT * CLEAR     58  56  95 W3        30.14S
MUSCATINE *    CLEAR     61  57  88 NW5       30.13R
QUAD CITIES    CLEAR     56  53  90 SW3       30.12R
6HR MIN TEMP:  55; 6HR MAX TEMP:  72;

$$

IAZ062-063-075>077-085>089-095>099-290700-
   SOUTHEAST IOWA

CITY           SKY/WX    TMP DP  RH WIND       PRES   REMARKS
BURLINGTON     CLEAR     59  57  93 NW6       30.13R
6HR MIN TEMP:  59; 6HR MAX TEMP:  72;

FAIRFIELD *    CLEAR     59  57  94 W5        30.15R
FORT MADISON * CLEAR     61  59  94 W3        30.14S
KEOKUK *       CLEAR     59  57  94 CALM      30.13S
OSKALOOSA *      N/A     58  56  94 NW7       30.15S
CENTERVILLE *  CLEAR     57  57 100 W3        30.18S
OTTUMWA        CLEAR     58  55  90 W6        30.15S
6HR MIN TEMP:  57; 6HR MAX TEMP:  72;

WASHINGTON *   CLEAR     59  57  94 NW7       30.14R
$$

ABBREVIATIONS USED IN REMARKS
   TC - TEMPERATURES IN CELSIUS
  WCI - WIND CHILL INDEX
   HX - HEAT INDEX
  VSB - VISIBILITY
$$



USA.gov is the U.S. government's official web portal to all federal, state and local government web resources and services.